Location: Boston
(42.3580°N, 71.0600°W)
Time: 22:50:52
(UTC-04:00)

OTV 5 (USA 277) - Pass Details

Date: 14 October 2017
Orbit: 404 x 417 km, 43.0° (Epoch: 07 September)

Event Time Altitude Azimuth Distance (km) Brightness Sun altitude
Rises 19:33:50 0° 267° (W) 2,353 ? -17.5°
Reaches altitude 10° 19:35:57 10° 269° (W) 1,490 ? -17.9°
Maximum altitude 19:39:19 79° 356° (N) 427 ? -18.5°
Enters shadow 19:39:45 64° 63° (ENE) 464 ? -18.6°
